GW7141 Weather Reports


time (UTC)temp
F
wind
direction
speed
knots
gust
knots
rain 1hr
in
rain 24hr
in
rain mn
in
humidity
%
barometer
mb
20260510023026 49 298 5.2 7.8 0.00 0.00 0.00 38 1012.1
20260510021532 49 335 4.3 8.7 0.00 0.00 0.00 38 1012.1
20260510020028 50 335 5.2 11.3 0.00 0.00 0.00 37 1012.0
20260510014526 50 350 2.6 10.4 0.00 0.00 0.00 36 1011.7
20260510013014 50 360 9.6 15.6 0.00 0.00 0.00 35 1009.7
20260510011520 50 1 6.1 14.8 0.00 0.00 0.00 34 1006.7
20260510010023 51 359 9.6 14.8 0.00 0.00 0.00 34 1006.3
20260510004509 52 1 3.5 12.2 0.00 0.00 0.00 33 1010.6
20260510003014 52 356 4.3 15.6 0.00 0.00 0.00 32 1010.4
20260510001521 53 352 8.7 17.4 0.00 0.00 0.00 31 1010.3
20260510000027 53 75 2.6 17.4 0.00 0.00 0.00 31 1010.0
20260509234525 54 328 7.0 20.9 0.00 0.00 0.00 30 1009.7
20260509233011 53 350 12.2 22.6 0.00 0.00 0.00 30 1005.2
20260509231517 54 336 6.1 17.4 0.00 0.00 0.00 31 1009.3
20260509230027 54 360 12.2 19.1 0.00 0.00 0.00 30 1009.0
20260509224522 53 340 9.6 17.4 0.00 0.00 0.00 31 1008.9
20260509223024 53 359 12.2 21.7 0.00 0.00 0.00 31 1008.9
20260509221510 54 1 11.3 20.0 0.00 0.00 0.00 30 1008.5
20260509220017 55 3 6.1 23.5 0.00 0.00 0.00 29 1008.4
20260509214534 55 342 13.9 20.0 0.00 0.00 0.00 29 1008.2
20260509213024 54 340 7.0 17.4 0.00 0.00 0.00 30 1008.0
20260509211511 53 339 12.2 19.1 0.00 0.00 0.00 30 1007.9
20260509210015 54 55 7.8 15.6 0.00 0.00 0.00 30 1006.7
20260509204529 54 357 4.3 13.0 0.00 0.00 0.00 31 1007.8
20260509203023 54 359 5.2 19.1 0.00 0.00 0.00 31 1007.8
20260509201527 53 356 7.0 17.4 0.00 0.00 0.00 32 1007.6
20260509200013 53 68 12.2 20.9 0.00 0.00 0.00 31 1007.2
20260509194522 53 341 8.7 17.4 0.00 0.00 0.00 31 1007.5
20260509193034 53 53 7.8 20.9 0.00 0.00 0.00 32 1007.4
20260509191526 52 346 9.6 18.2 0.00 0.00 0.00 32 1007.4
20260509190027 52 359 4.3 19.1 0.00 0.00 0.00 32 1005.6
20260509184518 51 10 13.0 19.1 0.00 0.00 0.00 31 1007.4
20260509183004 51 12 13.0 21.7 0.00 0.00 0.00 33 1005.7
20260509181508 51 355 10.4 19.1 0.00 0.00 0.00 34 1007.3
20260509180024 50 91 13.0 21.7 0.00 0.00 0.00 34 1007.0
20260509174518 50 1 7.0 20.9 0.00 0.00 0.00 36 1007.0
20260509173028 49 340 3.5 26.9 0.00 0.00 0.00 36 1006.0
20260509171511 50 349 7.0 21.7 0.00 0.00 0.00 37 1006.7
20260509170008 49 360 6.1 22.6 0.00 0.00 0.00 37 1005.6
20260509164512 50 1 8.7 25.2 0.00 0.00 0.00 37 1006.2
20260509163022 49 360 16.5 24.3 0.00 0.00 0.00 36 1005.5
20260509161521 50 49 8.7 24.3 0.00 0.00 0.00 37 1005.7
20260509160004 50 1 7.8 20.0 0.00 0.00 0.00 37 1003.8
20260509154512 49 347 8.7 22.6 0.00 0.00 0.00 39 1005.3
20260509153015 49 98 10.4 23.5 0.00 0.00 0.00 40 1004.8
20260509151520 48 354 13.9 25.2 0.00 0.00 0.00 41 1004.9
20260509150022 48 351 9.6 20.0 0.00 0.00 0.00 42 1004.7
20260509144513 48 44 10.4 23.5 0.00 0.00 0.00 41 1004.5
20260509143019 48 359 7.8 27.8 0.00 0.00 0.00 40 1004.5
20260509141529 47 350 8.7 20.9 0.00 0.00 0.00 40 999.8
20260509140044 48 14 13.0 23.5 0.00 0.00 0.00 38 1003.8
20260509134523 49 79 7.0 17.4 0.00 0.00 0.00 37 1003.9
20260509133026 48 357 4.3 21.7 0.00 0.00 0.00 37 1003.5
20260509131529 47 359 12.2 22.6 0.00 0.00 0.00 37 1002.7
20260509130026 47 340 12.2 20.9 0.00 0.00 0.00 37 1002.4
20260509124535 47 355 5.2 14.8 0.00 0.00 0.00 38 1002.8
20260509123026 47 353 7.0 16.5 0.00 0.00 0.00 38 1002.8
20260509121513 47 348 7.0 14.8 0.00 0.00 0.00 38 1002.7
20260509120018 47 351 3.5 12.2 0.00 0.00 0.00 38 1002.4
20260509114529 47 354 5.2 18.2 0.00 0.00 0.00 37 1002.2
20260509113024 48 359 3.5 15.6 0.00 0.00 0.00 36 1002.3
20260509111528 48 347 7.0 13.9 0.00 0.00 0.00 34 1001.9
20260509110028 49 347 7.8 11.3 0.00 0.00 0.00 33 1000.4
20260509104522 49 351 5.2 9.6 0.00 0.00 0.00 34 1001.3
20260509103023 49 352 5.2 9.6 0.00 0.00 0.00 33 1001.1
20260509101526 50 352 6.1 8.7 0.00 0.00 0.00 34 1001.1
20260509100031 50 356 4.3 8.7 0.00 0.00 0.00 35 1001.0
20260509094520 50 337 6.1 9.6 0.00 0.00 0.00 36 1000.9
20260509093023 51 343 4.3 10.4 0.00 0.00 0.00 36 1000.9
20260509091528 51 347 5.2 9.6 0.00 0.00 0.00 37 1000.8
20260509084534 51 349 4.3 8.7 0.00 0.00 0.00 39 1000.6
20260509083021 51 333 4.3 9.6 0.00 0.00 0.00 39 1000.4
20260509081526 52 328 6.1 8.7 0.00 0.00 0.00 38 1000.4
20260509080028 52 328 6.1 10.4 0.00 0.00 0.00 39 1000.2
20260509074526 52 329 7.8 9.6 0.00 0.00 0.00 39 1000.0
20260509073025 52 329 6.1 7.8 0.00 0.00 0.00 39 1000.1
20260509071522 53 345 7.0 8.7 0.00 0.00 0.00 37 1000.1
20260509070025 53 350 5.2 10.4 0.00 0.00 0.00 35 1000.3
20260509064528 53 335 3.5 9.6 0.00 0.00 0.00 36 1000.4
20260509063027 53 352 5.2 12.2 0.00 0.00 0.00 37 1000.5
20260509061533 53 308 5.2 7.0 0.00 0.00 0.00 38 1000.5
20260509060025 54 313 4.3 6.1 0.00 0.00 0.00 37 1000.3
20260509054507 54 318 5.2 7.8 0.00 0.00 0.00 36 1000.1
20260509053014 54 310 5.2 7.8 0.00 0.00 0.00 37 1000.2
20260509051518 54 300 3.5 6.1 0.00 0.00 0.00 38 1000.0
20260509050023 54 299 2.6 6.1 0.00 0.00 0.00 39 999.9
20260509044521 55 301 5.2 6.1 0.00 0.00 0.00 38 1000.1
20260509043011 55 305 6.1 7.8 0.00 0.00 0.00 38 1000.3
20260509041522 55 307 6.1 7.8 0.00 0.00 0.00 38 1000.3
20260509040020 56 311 5.2 7.0 0.00 0.00 0.00 37 1000.1
20260509034525 57 338 3.5 7.0 0.00 0.00 0.00 36 1000.1
20260509033022 58 344 6.1 7.8 0.00 0.00 0.00 35 1000.1
20260509031514 58 354 5.2 9.6 0.00 0.00 0.00 34 999.9
20260509030018 59 354 5.2 9.6 0.00 0.00 0.00 33 1000.1
20260509024522 60 350 5.2 13.9 0.00 0.00 0.00 32 999.8